When you browse on this site, cookies collect data to enhance your experience and personalize the content and advertising you see.
Visit our Privacy Policy to learn more. By continuing to use the site, you agree to this use of cookies and data.
  • In Lithuania
  • List of Countries
  • For 7 days
  • Water Temperature
  • Weather Map
  • Weather Widgets
  • user-avatar
    Login

    Hourly Weather Wiktoria

    Today, 27 January, Monday

    Time Temperature Precipitation Wind Pressure Humidity
    00:00 +21°C° 0 mm 4 mps 748 mmHg 70%
    01:00 +20°C° 0 mm 4 mps 748 mmHg 72%
    02:00 +19°C° 0 mm 3 mps 748 mmHg 75%
    03:00 +19°C° 0 mm 3 mps 748 mmHg 77%
    04:00 +18°C° 0 mm 2 mps 748 mmHg 78%
    05:00 +18°C° 0 mm 2 mps 748 mmHg 76%
    06:00 +19°C° 0 mm 2 mps 748 mmHg 73%
    07:00 +19°C° 0 mm 2 mps 749 mmHg 71%
    08:00 +23°C° 0 mm 2 mps 749 mmHg 59%
    09:00 +26°C° 0 mm 2 mps 749 mmHg 46%
    10:00 +29°C° 0 mm 2 mps 749 mmHg 35%
    11:00 +30°C° 0 mm 2 mps 748 mmHg 30%
    12:00 +31°C° 0 mm 2 mps 748 mmHg 25%
    13:00 +33°C° 0 mm 3 mps 748 mmHg 21%
    14:00 +34°C° 0 mm 3 mps 747 mmHg 19%
    15:00 +34°C° 0 mm 3 mps 747 mmHg 18%
    16:00 +35°C° 0 mm 3 mps 746 mmHg 16%
    17:00 +33°C° 0 mm 3 mps 747 mmHg 20%
    18:00 +31°C° 0 mm 3 mps 747 mmHg 24%
    19:00 +29°C° 0 mm 4 mps 747 mmHg 28%
    20:00 +27°C° 0 mm 4 mps 748 mmHg 35%
    21:00 +25°C° 0 mm 4 mps 748 mmHg 42%
    22:00 +22°C° 0 mm 5 mps 748 mmHg 49%
    23:00 +21°C° 0 mm 4 mps 748 mmHg 54%

    Tomorrow, 28 January, Tuesday

    Time Temperature Precipitation Wind Pressure Humidity
    00:00 +20°C° 0 mm 4 mps 748 mmHg 59%
    01:00 +19°C° 0 mm 4 mps 748 mmHg 64%
    02:00 +18°C° 0 mm 4 mps 748 mmHg 67%
    03:00 +18°C° 0 mm 3 mps 747 mmHg 69%
    04:00 +17°C° 0 mm 3 mps 747 mmHg 72%
    05:00 +18°C° 0 mm 3 mps 748 mmHg 69%
    06:00 +18°C° 0 mm 2 mps 748 mmHg 67%
    07:00 +19°C° 0 mm 2 mps 748 mmHg 64%
    08:00 +21°C° 0 mm 2 mps 748 mmHg 54%
    09:00 +25°C° 0 mm 2 mps 749 mmHg 43%
    10:00 +27°C° 0 mm 3 mps 749 mmHg 32%
    11:00 +29°C° 0 mm 3 mps 749 mmHg 30%
    12:00 +30°C° 0 mm 4 mps 748 mmHg 27%
    13:00 +33°C° 0 mm 5 mps 748 mmHg 24%
    14:00 +33°C° 0 mm 5 mps 748 mmHg 25%
    15:00 +33°C° 0 mm 5 mps 747 mmHg 26%
    16:00 +32°C° 0 mm 6 mps 747 mmHg 26%
    17:00 +30°C° 0 mm 5 mps 747 mmHg 29%
    18:00 +29°C° 0 mm 5 mps 748 mmHg 32%
    19:00 +27°C° 0 mm 4 mps 748 mmHg 34%
    20:00 +26°C° 0 mm 4 mps 749 mmHg 39%
    21:00 +24°C° 0 mm 3 mps 749 mmHg 44%
    22:00 +22°C° 0 mm 3 mps 750 mmHg 48%
    23:00 +21°C° 0 mm 3 mps 750 mmHg 49%

    Day after tomorrow, 29 January, Wednesday

    Time Temperature Precipitation Wind Pressure Humidity
    00:00 +20°C° 0 mm 3 mps 750 mmHg 49%
    01:00 +20°C° 0 mm 3 mps 750 mmHg 49%
    02:00 +19°C° 0 mm 3 mps 750 mmHg 50%
    03:00 +19°C° 0 mm 2 mps 749 mmHg 51%
    04:00 +19°C° 0 mm 2 mps 749 mmHg 51%
    05:00 +19°C° 0 mm 2 mps 750 mmHg 50%
    06:00 +20°C° 0 mm 2 mps 750 mmHg 49%
    07:00 +21°C° 0 mm 2 mps 750 mmHg 49%
    08:00 +24°C° 0 mm 2 mps 751 mmHg 42%
    09:00 +27°C° 0 mm 2 mps 751 mmHg 36%
    10:00 +30°C° 0 mm 2 mps 751 mmHg 29%
    11:00 +31°C° 0 mm 2 mps 750 mmHg 26%
    12:00 +32°C° 0 mm 2 mps 750 mmHg 22%
    13:00 +35°C° 0 mm 3 mps 749 mmHg 19%
    14:00 +36°C° 0 mm 3 mps 749 mmHg 18%
    15:00 +36°C° 0 mm 2 mps 748 mmHg 17%
    16:00 +37°C° 0 mm 2 mps 748 mmHg 16%
    17:00 +36°C° 0 mm 2 mps 748 mmHg 18%
    18:00 +34°C° 0 mm 3 mps 748 mmHg 21%
    19:00 +31°C° 0 mm 3 mps 748 mmHg 24%
    20:00 +30°C° 0 mm 3 mps 748 mmHg 26%
    21:00 +28°C° 0 mm 3 mps 749 mmHg 28%
    22:00 +26°C° 0 mm 3 mps 749 mmHg 29%
    23:00 +25°C° 0 mm 2 mps 749 mmHg 33%

    30 January, Thursday

    Time Temperature Precipitation Wind Pressure Humidity
    00:00 +25°C° 0 mm 2 mps 749 mmHg 36%
    01:00 +24°C° 0 mm 2 mps 748 mmHg 39%
    02:00 +23°C° 0 mm 2 mps 748 mmHg 42%
    03:00 +23°C° 0 mm 2 mps 748 mmHg 45%
    04:00 +21°C° 0 mm 2 mps 748 mmHg 47%
    05:00 +23°C° 0 mm 2 mps 749 mmHg 47%
    06:00 +24°C° 0 mm 3 mps 749 mmHg 47%
    07:00 +23°C° 0 mm 4 mps 749 mmHg 48%
    08:00 +27°C° 0 mm 4 mps 749 mmHg 43%
    09:00 +30°C° 0 mm 4 mps 749 mmHg 38%
    10:00 +33°C° 0 mm 4 mps 749 mmHg 33%
    11:00 +35°C° 0 mm 4 mps 748 mmHg 28%
    12:00 +37°C° 0 mm 3 mps 748 mmHg 23%
    13:00 +39°C° 0 mm 3 mps 747 mmHg 18%
    14:00 +39°C° 0 mm 2 mps 747 mmHg 17%
    15:00 +40°C° 0 mm 2 mps 746 mmHg 15%
    16:00 +41°C° 0 mm 1 mps 746 mmHg 14%
    17:00 +39°C° 0 mm 2 mps 746 mmHg 16%
    18:00 +38°C° 0 mm 2 mps 746 mmHg 18%
    19:00 +36°C° 0 mm 2 mps 746 mmHg 20%
    20:00 +35°C° 0 mm 2 mps 746 mmHg 22%
    21:00 +33°C° 0 mm 3 mps 747 mmHg 23%
    22:00 +31°C° 0 mm 3 mps 747 mmHg 24%
    23:00 +30°C° 0 mm 2 mps 747 mmHg 26%

    31 January, Friday

    Time Temperature Precipitation Wind Pressure Humidity
    00:00 +29°C° 0 mm 2 mps 746 mmHg 28%
    01:00 +28°C° 0 mm 2 mps 746 mmHg 30%
    02:00 +27°C° 0 mm 2 mps 746 mmHg 32%
    03:00 +27°C° 0 mm 2 mps 746 mmHg 34%
    04:00 +26°C° 0 mm 2 mps 746 mmHg 36%
    05:00 +26°C° 0 mm 2 mps 746 mmHg 36%
    06:00 +27°C° 0 mm 3 mps 746 mmHg 37%
    07:00 +27°C° 0 mm 3 mps 746 mmHg 37%
    08:00 +30°C° 0 mm 3 mps 746 mmHg 34%
    09:00 +34°C° 0 mm 4 mps 746 mmHg 31%
    10:00 +36°C° 0 mm 4 mps 746 mmHg 28%
    11:00 +38°C° 0 mm 4 mps 746 mmHg 24%
    12:00 +41°C° 0 mm 4 mps 745 mmHg 20%
    13:00 +44°C° 0 mm 3 mps 745 mmHg 17%
    14:00 +43°C° 0 mm 4 mps 744 mmHg 19%
    15:00 +42°C° 0 mm 4 mps 744 mmHg 22%
    16:00 +41°C° 0 mm 4 mps 744 mmHg 24%
    17:00 +38°C° 0 mm 4 mps 744 mmHg 28%
    18:00 +37°C° 0 mm 4 mps 744 mmHg 32%
    19:00 +36°C° 0 mm 3 mps 745 mmHg 35%
    20:00 +35°C° 0 mm 3 mps 745 mmHg 38%
    21:00 +34°C° 0 mm 2 mps 745 mmHg 41%
    22:00 +31°C° 0 mm 2 mps 745 mmHg 43%
    23:00 +31°C° 0 mm 2 mps 745 mmHg 43%

    1 February, Saturday

    Time Temperature Precipitation Wind Pressure Humidity
    00:00 +31°C° 0 mm 2 mps 745 mmHg 43%
    01:00 +30°C° 0 mm 2 mps 744 mmHg 43%
    02:00 +31°C° 0 mm 3 mps 744 mmHg 40%
    03:00 +33°C° 0 mm 3 mps 744 mmHg 36%
    04:00 +34°C° 0 mm 4 mps 744 mmHg 33%
    05:00 +34°C° 0 mm 4 mps 744 mmHg 34%
    06:00 +35°C° 0 mm 5 mps 745 mmHg 35%
    07:00 +35°C° 0 mm 5 mps 745 mmHg 35%
    08:00 +38°C° 0 mm 7 mps 745 mmHg 33%
    09:00 +39°C° 0 mm 8 mps 746 mmHg 30%
    10:00 +42°C° 0 mm 9 mps 746 mmHg 27%
    11:00 +39°C° 0 mm 8 mps 746 mmHg 35%
    12:00 +35°C° 0 mm 7 mps 745 mmHg 44%
    13:00 +33°C° 0 mm 6 mps 745 mmHg 52%
    14:00 +30°C° 0.5 mm 6 mps 745 mmHg 62%
    15:00 +28°C° 0.5 mm 6 mps 744 mmHg 72%
    16:00 +27°C° 0.5 mm 6 mps 744 mmHg 82%
    17:00 +26°C° 1.3 mm 6 mps 745 mmHg 83%
    18:00 +26°C° 1.3 mm 5 mps 745 mmHg 83%
    19:00 +26°C° 1.3 mm 5 mps 745 mmHg 84%
    20:00 +26°C° 0.4 mm 4 mps 746 mmHg 85%
    21:00 +26°C° 0.4 mm 3 mps 746 mmHg 86%
    22:00 +26°C° 0.4 mm 1 mps 746 mmHg 87%
    23:00 +26°C° 0.8 mm 1 mps 746 mmHg 89%
    Show more